Retour au catalogue

OPTUS A2

AUSSAT 2

ActifCommunicationsGEO
NORAD 16275·PAYLOAD·🇦🇺 Australia

Lancé Nov 27, 1985 depuis Cape Canaveral Space Force Station

Loading…

TLE

FraisSource: Space-Track

Époque: Sep 14, 2026, 00:01 UTC

1 16275U 85109C   26257.00120975 -.00000220  00000-0  00000-0 0  9995
2 16275  13.2921 339.4875 0005335 298.5122  56.3994  0.99953865 47411

Suivez OPTUS A2 en temps réel avec AllMySat

Download on the App Store